Japanese version Home page |
Updated on February 28, 2022 |
|
Orbital ElementsEpoch 2021 July 5.0 TT = JDT 2459400.5 T 2021 May 12.62787 TT Rudenko q 2.5129578 (2000.0) P Q n 0.08811803 Peri. 173.95599 +0.98463499 +0.17397502 a 5.0014146 Node 175.93151 -0.16778577 +0.96643939 e 0.4975506 Incl. 12.25054 -0.04839296 +0.18901747 P 11.2 From 90 observations 1988 Oct. 11-2021 Aug. 16, mean residual 0".9. Nongravitational parameters A1 = +6.03, A2 = -0.3485.
|
Magnitudes Graphm1 = 12.5 + 5 log d + 15 log r
|
The orbital elements are published on M.P.E.C. 2021-R75.
|